Location: Unspecified
(43.4680°N, 87.1740°E)
Time: 14:10:29
(UTC+00:00)

CZ-2D R/B - Pass Details

Date: 29 July 2021
Orbit: 553 x 637 km, 97.9° (Epoch: 17 September)

Event Time Altitude Azimuth Distance (km) Brightness Sun altitude
Rises 21:07:35 0° 22° (NNE) 2,764 8.3 -16.8°
Reaches altitude 10° 21:09:52 10° 32° (NNE) 1,872 7.3 -16.5°
Maximum altitude 21:13:34 34° 98° (E) 967 4.9 -16.1°
Drops below altitude 10° 21:17:18 10° 163° (SSE) 1,898 5.8 -15.6°
Enters shadow 21:17:36 - 165° (SSE) 2,013 5.9 -15.6°
